THOR ABLESTAR DEB, 656

Orbit data source: Space-Track

THOR ABLESTAR DEB, 656 is space debris in LEO originally from a launch on Thu, 29 Jun 1961 UTC launched from the Air Force Eastern Test Range (AFETR). Debris objects in space refer to the collection of defunct objects orbiting the Earth. Examples of debris include non-operational satellites, rocket bodies, and fragments generated from explosions, collisions, or faulty payload assembly.

Loading next visibility...
Identifier
656, 1961-015HH
Orbit
LEO
Country
Flag of USUS
Related business
Manufacturer
Unknown
Mission
Spacecraft
Bus & Motor
Unknown
Mass
Unknown
Launch date (UTC)
1961-06-29 (65 years ago)
Launch vehicle
Unknown
Launch site
Air Force Eastern Test Range (AFETR)
Object type
Payload
Rocket body
Debris
Shape & HBR
Unknown shape, 0.2 m
Radar Cross Section
Small (<0.1 m²)

Expand to show TLE details & history
Last TLE update: 1 day ago

TLE from 1 day ago
0 THOR ABLESTAR DEB
1 00656U 61015HH  26135.45229370 -.00000079  00000-0 -43146-4 0  9999
2 00656  66.2918 270.6363 0652986 138.3628 226.9052 12.72924465962831
Epoch: 2026-05-15T10:51Z
TLE epoch observation values (Epoch: 2026-05-15T10:51:18.175Z)
Latitude
-0.00001°
Longitude
-125.37284°
Altitude
1,734.182 km
Speed
6.846 km/s
True Right ascension
18h 02m 32s
True Declination
0° 00' 00"
Sunlit
Object was in full shadow at epoch
Visualization orbit readout
Latitude
Unknown
Longitude
Unknown
Altitude
Unknown
Speed
Unknown
Apparent Right ascension
Unknown
Apparent Declination
Unknown
Sunlit
N/A
Visualization observer readout
Local Sidereal Time
20:32:22
Azimuth
Unknown
Elevation
Unknown
Doppler factor
Unknown
Orbital elements
Apogee altitude
1,874.432 km
Perigee altitude
862.732 km
Semi-major axis
7,746.719 km
Eccentricity
0.0653
Inclination
66.2918°
RAAN
270.6363°
Arg. of periapsis
138.3628°
True anomaly
221.73731°
Mean anomaly
226.9052°
Eccentric anomaly
224.29254°
Mean motion
3.18322 °/min
Orbital period
113.09 mins
BSTAR
-0.000043146

Documentation

Showing up to 5 results
|